Weather in Shava

Russia / Republic of Dagestan     43°43′25″N   47°01′59″E
temp.,
°C
wind,
m/s
gust,
m/s
humid.,
%
clouds,
%
prec.,
mm/h
press.,
hPa
HPBL,
m
8 december, wed
wed800:00+11ese11188590 0.0 1014718
03:00+11se11188448 0.0 1012659
06:00+12se111680100 0.0 1011782
09:00+12se101475100 0.0 1011844
12:00+13se8117499 0.0 1010858
15:00+13se8107736 0.0 1009711
18:00+11se8148874 0.0 1008588
21:00+12se588599 0.0 1008574
9 december, thu
thu900:00+11nw008184 0.0 100816
03:00+9w478870 0.0 1009209
06:00+8w61386100 0.0 1010351
09:00+9w91479100 0.0 1012630
12:00+10w91373100 0.1 1014796
15:00+12wnw81464100 0.1 1015782
18:00+10wnw41175100 0.0 1017267
21:00+9wnw488249 0.0 1019154
10 december, fri
fri1000:00+8wnw49865 0.0 1020169
03:00+7wnw49905 0.0 1021165
06:00+7wnw379213 0.0 1023124
09:00+8w358557 0.0 1024170
12:00+11w4673100 0.0 1024386
15:00+10w4775100 0.0 1024371
18:00+9wsw3681100 0.0 102599
21:00+10w3574100 0.0 1025135
11 december, sat
sat1100:00+9wnw247735 0.0 102483
03:00+7wnw228318 0.0 102424
06:00+6wnw22885 0.0 102418
09:00+8nnw248311 0.0 1026166
12:00+9n337494 0.0 1026620
15:00+9n336895 0.0 1026807
18:00+5nne34728 0.0 1029121
21:00+4nne23745 0.0 103063
12 december, sun
sun1200:00+3ne23737 0.0 103145
03:00+3ne2385100 0.0 103247
06:00+2ene3389100 0.0 103254
09:00+4ene368041 0.0 1033306
12:00+7e676652 0.0 1032829
15:00+7e6871100 0.0 1032876
18:00+7ese71070100 0.0 1033971
21:00+7ese81168100 0.0 10321018